Japanese version Home page |
Updated on May 15, 2024 |
Profile
|
Orbital ElementsEpoch 2024 Mar. 31.0 TT = JDT 2460400.5 T 2024 Jan. 19.16643 TT Rudenko q 7.6898674 (2000.0) P Q z +0.0010961 Peri. 246.30713 -0.33403982 +0.93875439 +/-0.0000097 Node 6.35367 -0.30059818 -0.02102960 e 0.9915712 Incl. 49.86165 -0.89334099 -0.34394469 >From 73 observations 2022 Mar. 2-2024 Apr. 7, mean residual 0".4.
|
Magnitudes Graphm1 = 6.0 + 5 log d + 10.0 log r
|
The orbital elements are published on M.P.E.C. 2024-J304.
|